| time (UTC) | temp C | wind direction | speed KPH | gust KPH | rain 1hr cm | rain 24hr cm | rain mn cm | humidity % | barometer mb |
| 20260505200435 | 15 | 315 | 6.4 | 17.7 | 0.05 | 0.08 | 0.08 | 89 | 1007.2 |
| 20260505195930 | 15 | 326 | 4.8 | 12.9 | 0.05 | 0.08 | 0.08 | 90 | 1007.5 |
| 20260505195428 | 15 | 328 | 4.8 | 16.1 | 0.00 | 0.08 | 0.08 | 88 | 1007.5 |
| 20260505194925 | 15 | 319 | 4.8 | 22.5 | 0.23 | 0.08 | 0.08 | 89 | 1007.9 |
| 20260505194423 | 15 | 242 | 17.7 | 29.0 | 0.23 | 0.08 | 0.08 | 87 | 1008.2 |
| 20260505193922 | 17 | 307 | 16.1 | 46.7 | 0.00 | 0.03 | 0.03 | 76 | 1007.5 |
| 20260505193420 | 22 | 234 | 17.7 | 17.7 | 0.00 | 0.03 | 0.03 | 41 | 1006.0 |
| 20260505192918 | 23 | 218 | 3.2 | 25.7 | 0.00 | 0.03 | 0.03 | 38 | 1005.5 |
| 20260505192416 | 23 | 205 | 14.5 | 41.8 | 0.00 | 0.03 | 0.03 | 37 | 1005.3 |
| 20260505191913 | 23 | 208 | 22.5 | 32.2 | 0.00 | 0.03 | 0.03 | 37 | 1005.2 |
| 20260505191412 | 23 | 167 | 4.8 | 33.8 | 0.00 | 0.03 | 0.03 | 37 | 1004.9 |
| 20260505190908 | 25 | 210 | 3.2 | 19.3 | 0.00 | 0.03 | 0.03 | 38 | 1005.2 |
| 20260505190404 | 25 | 214 | 4.8 | 17.7 | 0.00 | 0.03 | 0.03 | 39 | 1005.1 |
| 20260505185859 | 24 | 161 | 4.8 | 20.9 | 0.00 | 0.03 | 0.03 | 40 | 1005.2 |
| 20260505185356 | 23 | 223 | 4.8 | 24.1 | 0.00 | 0.03 | 0.03 | 45 | 1005.3 |
| 20260505184852 | 23 | 232 | 3.2 | 19.3 | 0.00 | 0.03 | 0.03 | 45 | 1005.1 |
| 20260505184349 | 23 | 162 | 4.8 | 20.9 | 0.00 | 0.03 | 0.03 | 45 | 1005.4 |
| 20260505183846 | 23 | 221 | 11.3 | 33.8 | 0.00 | 0.03 | 0.03 | 46 | 1005.4 |
| 20260505183343 | 23 | 180 | 6.4 | 25.7 | 0.00 | 0.03 | 0.03 | 45 | 1005.4 |
| 20260505182840 | 23 | 210 | 6.4 | 24.1 | 0.00 | 0.03 | 0.03 | 45 | 1005.7 |
| 20260505182337 | 23 | 234 | 8.0 | 30.6 | 0.00 | 0.03 | 0.03 | 45 | 1005.8 |
| 20260505181834 | 23 | 227 | 11.3 | 24.1 | 0.00 | 0.03 | 0.03 | 45 | 1005.9 |
| 20260505181331 | 23 | 159 | 9.7 | 24.1 | 0.00 | 0.03 | 0.03 | 46 | 1006.1 |
| 20260505180827 | 23 | 147 | 17.7 | 24.1 | 0.00 | 0.03 | 0.03 | 46 | 1006.1 |
| 20260505180324 | 23 | 167 | 8.0 | 17.7 | 0.00 | 0.03 | 0.03 | 44 | 1006.2 |
| 20260505175820 | 23 | 235 | 11.3 | 17.7 | 0.00 | 0.03 | 0.03 | 45 | 1006.2 |
| 20260505175317 | 23 | 244 | 19.3 | 22.5 | 0.00 | 0.03 | 0.03 | 46 | 1006.5 |
| 20260505174813 | 23 | 257 | 12.9 | 17.7 | 0.00 | 0.03 | 0.03 | 46 | 1006.3 |
| 20260505174311 | 23 | 252 | 14.5 | 14.5 | 0.00 | 0.03 | 0.03 | 47 | 1006.4 |
| 20260505173806 | 23 | 165 | 3.2 | 20.9 | 0.00 | 0.03 | 0.03 | 47 | 1006.4 |
| 20260505173303 | 22 | 236 | 14.5 | 20.9 | 0.00 | 0.03 | 0.03 | 47 | 1006.5 |
| 20260505172800 | 22 | 167 | 0.0 | 24.1 | 0.00 | 0.03 | 0.03 | 48 | 1006.4 |
| 20260505172257 | 22 | 127 | 8.0 | 25.7 | 0.00 | 0.03 | 0.03 | 46 | 1006.4 |
| 20260505171752 | 22 | 190 | 3.2 | 11.3 | 0.00 | 0.03 | 0.03 | 48 | 1006.6 |
| 20260505171249 | 22 | 241 | 17.7 | 19.3 | 0.00 | 0.03 | 0.03 | 48 | 1006.5 |
| 20260505170746 | 22 | 211 | 4.8 | 17.7 | 0.00 | 0.03 | 0.03 | 48 | 1006.4 |
| 20260505170243 | 22 | 180 | 8.0 | 25.7 | 0.00 | 0.03 | 0.03 | 47 | 1006.3 |
| 20260505165738 | 22 | 89 | 3.2 | 25.7 | 0.00 | 0.03 | 0.03 | 47 | 1006.1 |
| 20260505165234 | 23 | 211 | 11.3 | 20.9 | 0.00 | 0.03 | 0.03 | 45 | 1005.9 |
| 20260505164730 | 22 | 193 | 6.4 | 22.5 | 0.00 | 0.03 | 0.03 | 46 | 1006.2 |
| 20260505164227 | 22 | 254 | 12.9 | 27.4 | 0.00 | 0.03 | 0.03 | 45 | 1006.3 |
| 20260505163725 | 22 | 262 | 3.2 | 11.3 | 0.00 | 0.03 | 0.03 | 46 | 1006.1 |
| 20260505163224 | 22 | 241 | 14.5 | 20.9 | 0.00 | 0.03 | 0.03 | 45 | 1006.4 |
| 20260505162721 | 22 | 195 | 9.7 | 17.7 | 0.00 | 0.03 | 0.03 | 45 | 1006.4 |
| 20260505162218 | 22 | 225 | 14.5 | 22.5 | 0.00 | 0.03 | 0.03 | 45 | 1006.6 |
| 20260505161715 | 22 | 265 | 8.0 | 14.5 | 0.00 | 0.03 | 0.03 | 46 | 1006.6 |
| 20260505161212 | 22 | 251 | 11.3 | 16.1 | 0.00 | 0.03 | 0.03 | 45 | 1006.5 |
| 20260505160710 | 23 | 161 | 6.4 | 12.9 | 0.00 | 0.03 | 0.03 | 45 | 1006.6 |
| 20260505160207 | 23 | 246 | 6.4 | 22.5 | 0.00 | 0.03 | 0.03 | 45 | 1006.7 |
| 20260505153146 | 22 | 186 | 6.4 | 30.6 | 0.00 | 0.03 | 0.03 | 46 | 1006.9 |
| 20260505152643 | 23 | 148 | 8.0 | 25.7 | 0.00 | 0.03 | 0.03 | 45 | 1006.9 |
| 20260505152138 | 22 | 195 | 12.9 | 37.0 | 0.00 | 0.03 | 0.03 | 47 | 1006.9 |
| 20260505151634 | 22 | 189 | 16.1 | 35.4 | 0.00 | 0.03 | 0.03 | 46 | 1006.7 |
| 20260505151132 | 22 | 226 | 3.2 | 22.5 | 0.00 | 0.03 | 0.03 | 47 | 1006.6 |
| 20260505150627 | 22 | 177 | 8.0 | 27.4 | 0.00 | 0.03 | 0.03 | 46 | 1006.7 |
| 20260505150125 | 22 | 183 | 14.5 | 25.7 | 0.00 | 0.03 | 0.03 | 48 | 1006.7 |
| 20260505140553 | 20 | 243 | 14.5 | 20.9 | 0.00 | 0.03 | 0.03 | 52 | 1007.1 |
| 20260505125007 | 16 | 161 | 4.8 | 14.5 | 0.00 | 0.03 | 0.03 | 65 | 1007.9 |
| 20260505124503 | 16 | 111 | 16.1 | 17.7 | 0.00 | 0.03 | 0.03 | 66 | 1007.9 |
| 20260505124000 | 16 | 129 | 3.2 | 17.7 | 0.00 | 0.03 | 0.03 | 68 | 1008.0 |
| 20260505123456 | 16 | 135 | 3.2 | 9.7 | 0.00 | 0.03 | 0.03 | 69 | 1007.8 |
| 20260505122952 | 16 | 233 | 0.0 | 9.7 | 0.00 | 0.03 | 0.03 | 69 | 1007.9 |
| 20260505122450 | 15 | 188 | 3.2 | 11.3 | 0.00 | 0.03 | 0.03 | 72 | 1007.8 |
| 20260505121946 | 15 | 244 | 8.0 | 12.9 | 0.00 | 0.03 | 0.03 | 71 | 1007.6 |
| 20260505121444 | 15 | 149 | 4.8 | 11.3 | 0.00 | 0.03 | 0.03 | 74 | 1008.0 |
| 20260505120939 | 15 | 225 | 4.8 | 8.0 | 0.00 | 0.03 | 0.03 | 73 | 1007.7 |
| 20260505120436 | 15 | 134 | 4.8 | 11.3 | 0.00 | 0.03 | 0.03 | 73 | 1007.7 |
| 20260505115935 | 15 | 150 | 4.8 | 8.0 | 0.00 | 0.03 | 0.03 | 74 | 1007.6 |
| 20260505115432 | 15 | 175 | 3.2 | 11.3 | 0.00 | 0.03 | 0.03 | 75 | 1007.5 |
| 20260505114930 | 15 | 97 | 1.6 | 9.7 | 0.00 | 0.03 | 0.03 | 74 | 1007.3 |
| 20260505114426 | 15 | 119 | 0.0 | 14.5 | 0.00 | 0.03 | 0.03 | 73 | 1007.4 |
| 20260505113922 | 15 | 179 | 8.0 | 25.7 | 0.00 | 0.03 | 0.03 | 73 | 1007.7 |
| 20260505113419 | 13 | 221 | 8.0 | 14.5 | 0.00 | 0.03 | 0.03 | 76 | 1007.4 |
| 20260505112915 | 14 | 176 | 4.8 | 12.9 | 0.13 | 0.03 | 0.03 | 75 | 1007.5 |
| 20260505112413 | 13 | 299 | 1.6 | 16.1 | 0.18 | 0.03 | 0.03 | 75 | 1007.7 |
| 20260505111908 | 15 | 225 | 8.0 | 14.5 | 0.05 | 0.00 | 0.00 | 70 | 1008.0 |
| 20260505111403 | 15 | 249 | 4.8 | 9.7 | 0.00 | 0.00 | 0.00 | 66 | 1007.6 |
| 20260505110859 | 15 | 125 | 4.8 | 6.4 | 0.00 | 0.00 | 0.00 | 66 | 1007.9 |
| 20260505110357 | 15 | 134 | 4.8 | 6.4 | 0.00 | 0.00 | 0.00 | 66 | 1008.0 |
| 20260505101827 | 15 | 41 | 1.6 | 9.7 | 0.00 | 0.00 | 0.00 | 64 | 1007.5 |
| 20260505101322 | 14 | 189 | 4.8 | 11.3 | 0.00 | 0.00 | 0.00 | 65 | 1007.6 |
| 20260505100818 | 13 | 97 | 0.0 | 4.8 | 0.00 | 0.00 | 0.00 | 66 | 1007.5 |
| 20260505100315 | 13 | 131 | 3.2 | 4.8 | 0.00 | 0.00 | 0.00 | 67 | 1007.3 |
| 20260505095811 | 13 | 142 | 0.0 | 3.2 | 0.00 | 0.00 | 0.00 | 67 | 1007.2 |
| 20260505095309 | 14 | 137 | 3.2 | 6.4 | 0.00 | 0.00 | 0.00 | 66 | 1007.1 |
| 20260505094804 | 13 | 115 | 3.2 | 4.8 | 0.00 | 0.00 | 0.00 | 66 | 1007.3 |
| 20260505094301 | 14 | 165 | 1.6 | 4.8 | 0.00 | 0.00 | 0.00 | 65 | 1007.1 |
| 20260505093757 | 14 | 120 | 4.8 | 6.4 | 0.00 | 0.00 | 0.00 | 65 | 1006.9 |
| 20260505093255 | 14 | 139 | 3.2 | 4.8 | 0.00 | 0.00 | 0.00 | 64 | 1007.1 |
| 20260505092751 | 14 | 121 | 3.2 | 8.0 | 0.00 | 0.00 | 0.00 | 64 | 1007.0 |
| 20260505092250 | 14 | 193 | 3.2 | 6.4 | 0.00 | 0.00 | 0.00 | 63 | 1006.9 |
| 20260505091747 | 14 | 138 | 4.8 | 6.4 | 0.00 | 0.00 | 0.00 | 64 | 1006.7 |
| 20260505091245 | 14 | 115 | 4.8 | 8.0 | 0.00 | 0.00 | 0.00 | 63 | 1006.7 |
| 20260505090742 | 14 | 129 | 3.2 | 4.8 | 0.00 | 0.00 | 0.00 | 63 | 1006.5 |
| 20260505090240 | 14 | 143 | 3.2 | 6.4 | 0.00 | 0.00 | 0.00 | 63 | 1006.6 |
| 20260505085738 | 14 | 130 | 4.8 | 9.7 | 0.00 | 0.00 | 0.00 | 63 | 1006.7 |
| 20260505085236 | 14 | 128 | 3.2 | 14.5 | 0.00 | 0.00 | 0.00 | 63 | 1006.7 |
| 20260505084732 | 15 | 86 | 1.6 | 9.7 | 0.00 | 0.00 | 0.00 | 62 | 1006.9 |
| 20260505084232 | 14 | 192 | 6.4 | 8.0 | 0.00 | 0.00 | 0.00 | 62 | 1006.5 |
| 20260505083728 | 14 | 115 | 3.2 | 9.7 | 0.00 | 0.00 | 0.00 | 62 | 1006.4 |
| 20260505083225 | 14 | 159 | 3.2 | 6.4 | 0.00 | 0.00 | 0.00 | 63 | 1006.5 |
| 20260505082721 | 14 | 135 | 4.8 | 11.3 | 0.00 | 0.00 | 0.00 | 62 | 1006.6 |
| 20260505082219 | 15 | 124 | 3.2 | 9.7 | 0.00 | 0.00 | 0.00 | 61 | 1006.6 |
| 20260505081714 | 14 | 149 | 8.0 | 9.7 | 0.00 | 0.00 | 0.00 | 61 | 1006.5 |
| 20260505081212 | 15 | 126 | 8.0 | 8.0 | 0.00 | 0.00 | 0.00 | 61 | 1006.7 |
| 20260505080709 | 15 | 158 | 6.4 | 8.0 | 0.00 | 0.00 | 0.00 | 61 | 1006.5 |
| 20260505080204 | 15 | 145 | 4.8 | 4.8 | 0.00 | 0.00 | 0.00 | 61 | 1006.7 |
| 20260505075700 | 15 | 152 | 0.0 | 4.8 | 0.00 | 0.00 | 0.00 | 60 | 1006.7 |
| 20260505075157 | 15 | 126 | 4.8 | 8.0 | 0.00 | 0.00 | 0.00 | 60 | 1007.0 |
| 20260505074654 | 15 | 127 | 6.4 | 9.7 | 0.00 | 0.00 | 0.00 | 60 | 1006.7 |
| 20260505074151 | 15 | 139 | 3.2 | 9.7 | 0.00 | 0.00 | 0.00 | 59 | 1006.9 |
| 20260505073649 | 15 | 132 | 3.2 | 4.8 | 0.00 | 0.00 | 0.00 | 60 | 1006.7 |
| 20260505073147 | 15 | 141 | 3.2 | 8.0 | 0.00 | 0.00 | 0.00 | 59 | 1006.7 |
| 20260505072642 | 15 | 140 | 3.2 | 6.4 | 0.00 | 0.00 | 0.00 | 59 | 1006.7 |
| 20260505072139 | 15 | 177 | 3.2 | 4.8 | 0.00 | 0.00 | 0.00 | 59 | 1006.7 |
| 20260505071634 | 15 | 89 | 3.2 | 6.4 | 0.00 | 0.00 | 0.00 | 58 | 1006.7 |
| 20260505071133 | 15 | 124 | 0.0 | 8.0 | 0.00 | 0.00 | 0.00 | 57 | 1007.0 |
| 20260505070629 | 15 | 127 | 3.2 | 4.8 | 0.00 | 0.00 | 0.00 | 58 | 1006.7 |
| 20260505070126 | 15 | 141 | 3.2 | 6.4 | 0.00 | 0.00 | 0.00 | 57 | 1006.9 |
| 20260505065622 | 15 | 186 | 3.2 | 8.0 | 0.00 | 0.00 | 0.00 | 57 | 1006.6 |
| 20260505065118 | 15 | 159 | 6.4 | 9.7 | 0.00 | 0.00 | 0.00 | 57 | 1006.7 |
| 20260505064615 | 15 | 221 | 4.8 | 6.4 | 0.00 | 0.00 | 0.00 | 57 | 1007.0 |
| 20260505064114 | 15 | 159 | 3.2 | 9.7 | 0.00 | 0.00 | 0.00 | 57 | 1007.0 |
| 20260505063611 | 15 | 148 | 3.2 | 14.5 | 0.00 | 0.00 | 0.00 | 57 | 1007.0 |
| 20260505063106 | 15 | 141 | 3.2 | 4.8 | 0.00 | 0.00 | 0.00 | 58 | 1007.2 |
| 20260505062603 | 15 | 127 | 4.8 | 8.0 | 0.00 | 0.00 | 0.00 | 57 | 1007.1 |
| 20260505062101 | 15 | 110 | 0.0 | 12.9 | 0.00 | 0.00 | 0.00 | 57 | 1007.0 |
| 20260505061558 | 15 | 170 | 3.2 | 16.1 | 0.00 | 0.00 | 0.00 | 55 | 1006.9 |
| 20260505061056 | 15 | 140 | 3.2 | 11.3 | 0.00 | 0.00 | 0.00 | 56 | 1006.9 |
| 20260505060553 | 15 | 135 | 1.6 | 11.3 | 0.00 | 0.00 | 0.00 | 57 | 1007.0 |
| 20260505060050 | 15 | 101 | 3.2 | 20.9 | 0.00 | 0.00 | 0.00 | 55 | 1006.7 |
| 20260505055545 | 15 | 125 | 3.2 | 12.9 | 0.00 | 0.00 | 0.00 | 55 | 1007.0 |
| 20260505055042 | 15 | 176 | 3.2 | 8.0 | 0.00 | 0.00 | 0.00 | 56 | 1007.0 |
| 20260505054539 | 15 | 155 | 1.6 | 12.9 | 0.00 | 0.00 | 0.00 | 55 | 1006.9 |
| 20260505054037 | 15 | 151 | 8.0 | 14.5 | 0.00 | 0.00 | 0.00 | 55 | 1007.0 |
| 20260505053534 | 15 | 128 | 4.8 | 11.3 | 0.00 | 0.00 | 0.00 | 56 | 1007.0 |
| 20260505053031 | 15 | 132 | 6.4 | 8.0 | 0.00 | 0.00 | 0.00 | 55 | 1007.1 |
| 20260505052528 | 15 | 130 | 3.2 | 6.4 | 0.00 | 0.00 | 0.00 | 55 | 1007.0 |
| 20260505052025 | 15 | 119 | 3.2 | 8.0 | 0.00 | 0.00 | 0.00 | 55 | 1007.0 |
| 20260505051522 | 15 | 135 | 4.8 | 9.7 | 0.00 | 0.00 | 0.00 | 54 | 1007.0 |
| 20260505051020 | 15 | 170 | 3.2 | 12.9 | 0.00 | 0.00 | 0.00 | 54 | 1007.3 |
| 20260505050518 | 15 | 253 | 1.6 | 8.0 | 0.00 | 0.00 | 0.00 | 54 | 1007.2 |
| 20260505041445 | 15 | 148 | 3.2 | 8.0 | 0.00 | 0.00 | 0.00 | 54 | 1007.2 |
| 20260505040943 | 16 | 125 | 4.8 | 8.0 | 0.00 | 0.00 | 0.00 | 53 | 1006.9 |
| 20260505040440 | 16 | 155 | 3.2 | 11.3 | 0.00 | 0.00 | 0.00 | 52 | 1006.9 |
| 20260505035937 | 16 | 118 | 1.6 | 12.9 | 0.00 | 0.00 | 0.00 | 52 | 1007.0 |
| 20260505035433 | 16 | 110 | 3.2 | 17.7 | 0.00 | 0.00 | 0.00 | 52 | 1007.0 |
| 20260505034930 | 16 | 129 | 8.0 | 12.9 | 0.00 | 0.00 | 0.00 | 52 | 1006.9 |
| 20260505034426 | 16 | 125 | 3.2 | 6.4 | 0.00 | 0.00 | 0.00 | 52 | 1007.0 |
| 20260505033924 | 16 | 212 | 4.8 | 14.5 | 0.00 | 0.00 | 0.00 | 51 | 1006.9 |
| 20260505033420 | 16 | 356 | 6.4 | 11.3 | 0.00 | 0.00 | 0.00 | 52 | 1006.7 |
| 20260505032919 | 16 | 164 | 6.4 | 8.0 | 0.00 | 0.00 | 0.00 | 52 | 1006.9 |
| 20260505032415 | 16 | 246 | 9.7 | 14.5 | 0.00 | 0.00 | 0.00 | 51 | 1006.9 |
| 20260505031912 | 16 | 218 | 3.2 | 11.3 | 0.00 | 0.00 | 0.00 | 52 | 1006.7 |
| 20260505031409 | 16 | 210 | 1.6 | 9.7 | 0.00 | 0.00 | 0.00 | 52 | 1006.6 |
| 20260505030906 | 16 | 175 | 1.6 | 8.0 | 0.00 | 0.00 | 0.00 | 51 | 1006.6 |
| 20260505030402 | 16 | 133 | 1.6 | 19.3 | 0.00 | 0.00 | 0.00 | 51 | 1006.7 |
| 20260505025857 | 16 | 206 | 8.0 | 17.7 | 0.00 | 0.00 | 0.00 | 50 | 1006.7 |
| 20260505025355 | 16 | 206 | 4.8 | 19.3 | 0.00 | 0.00 | 0.00 | 50 | 1007.0 |
| 20260505024854 | 16 | 148 | 4.8 | 8.0 | 0.00 | 0.00 | 0.00 | 50 | 1006.9 |
| 20260505024351 | 16 | 225 | 9.7 | 14.5 | 0.00 | 0.00 | 0.00 | 49 | 1007.0 |
| 20260505023847 | 16 | 180 | 4.8 | 17.7 | 0.00 | 0.00 | 0.00 | 48 | 1006.9 |
| 20260505023339 | 16 | 178 | 4.8 | 11.3 | 0.00 | 0.00 | 0.00 | 49 | 1007.0 |
| 20260505022836 | 16 | 257 | 4.8 | 8.0 | 0.00 | 0.00 | 0.00 | 48 | 1007.1 |
| 20260505022333 | 16 | 169 | 4.8 | 9.7 | 0.00 | 0.00 | 0.00 | 47 | 1007.3 |
| 20260505021831 | 16 | 327 | 1.6 | 20.9 | 0.00 | 0.00 | 0.00 | 47 | 1007.2 |
| 20260505021327 | 17 | 149 | 0.0 | 14.5 | 0.00 | 0.00 | 0.00 | 48 | 1007.1 |
| 20260505020823 | 16 | 161 | 3.2 | 11.3 | 0.00 | 0.00 | 0.00 | 47 | 1007.0 |
| 20260505020318 | 16 | 58 | 1.6 | 12.9 | 0.00 | 0.00 | 0.00 | 48 | 1007.1 |
| 20260505015815 | 17 | 80 | 3.2 | 11.3 | 0.00 | 0.00 | 0.00 | 47 | 1007.2 |
| 20260505015313 | 17 | 257 | 0.0 | 9.7 | 0.00 | 0.00 | 0.00 | 47 | 1007.0 |
| 20260505014810 | 16 | 40 | 3.2 | 9.7 | 0.00 | 0.00 | 0.00 | 48 | 1007.1 |
| 20260505014307 | 16 | 153 | 1.6 | 8.0 | 0.00 | 0.00 | 0.00 | 48 | 1007.0 |
| 20260505013803 | 17 | 177 | 4.8 | 12.9 | 0.00 | 0.00 | 0.00 | 47 | 1007.0 |
| 20260505013301 | 16 | 181 | 1.6 | 6.4 | 0.00 | 0.00 | 0.00 | 47 | 1006.9 |
| 20260505012759 | 17 | 132 | 1.6 | 8.0 | 0.00 | 0.00 | 0.00 | 47 | 1006.6 |
| 20260505012256 | 17 | 305 | 1.6 | 12.9 | 0.00 | 0.00 | 0.00 | 46 | 1006.7 |
| 20260505011752 | 17 | 199 | 1.6 | 11.3 | 0.00 | 0.00 | 0.00 | 46 | 1006.7 |
| 20260505011249 | 17 | 124 | 4.8 | 8.0 | 0.00 | 0.00 | 0.00 | 45 | 1006.9 |
| 20260505010744 | 17 | 138 | 4.8 | 11.3 | 0.00 | 0.00 | 0.00 | 45 | 1006.6 |
| 20260505010241 | 17 | 76 | 3.2 | 9.7 | 0.00 | 0.00 | 0.00 | 45 | 1006.6 |
| 20260505005737 | 17 | 182 | 3.2 | 14.5 | 0.00 | 0.00 | 0.00 | 45 | 1006.5 |
| 20260505005234 | 17 | 134 | 1.6 | 8.0 | 0.00 | 0.00 | 0.00 | 46 | 1006.5 |
| 20260505004732 | 17 | 146 | 12.9 | 17.7 | 0.00 | 0.00 | 0.00 | 44 | 1006.3 |
| 20260505004228 | 17 | 139 | 1.6 | 12.9 | 0.00 | 0.00 | 0.00 | 45 | 1006.3 |
| 20260505003725 | 17 | 142 | 4.8 | 19.3 | 0.00 | 0.00 | 0.00 | 45 | 1006.4 |
| 20260505003223 | 18 | 138 | 6.4 | 19.3 | 0.00 | 0.00 | 0.00 | 44 | 1006.5 |
| 20260505002719 | 17 | 179 | 1.6 | 9.7 | 0.00 | 0.00 | 0.00 | 46 | 1006.4 |
| 20260505002217 | 17 | 134 | 1.6 | 3.2 | 0.00 | 0.00 | 0.00 | 45 | 1006.2 |
| 20260505001714 | 17 | 187 | 4.8 | 14.5 | 0.00 | 0.00 | 0.00 | 44 | 1006.3 |
| 20260505001212 | 18 | 225 | 3.2 | 8.0 | 0.00 | 0.00 | 0.00 | 43 | 1006.1 |
| 20260505000708 | 17 | 123 | 1.6 | 8.0 | 0.00 | 0.00 | 0.00 | 44 | 1006.3 |
| 20260505000206 | 18 | 156 | 3.2 | 6.4 | 0.00 | 0.00 | 0.00 | 43 | 1006.2 |
| 20260504235702 | 18 | 138 | 1.6 | 12.9 | 0.00 | 0.00 | 0.00 | 43 | 1006.1 |
| 20260504235158 | 18 | 140 | 4.8 | 9.7 | 0.00 | 0.00 | 0.00 | 42 | 1006.1 |
| 20260504234656 | 18 | 174 | 4.8 | 11.3 | 0.00 | 0.00 | 0.00 | 42 | 1006.1 |
| 20260504234153 | 18 | 138 | 4.8 | 11.3 | 0.00 | 0.00 | 0.00 | 40 | 1006.1 |
| 20260504233649 | 19 | 84 | 3.2 | 8.0 | 0.00 | 0.00 | 0.00 | 40 | 1006.0 |
| 20260504233145 | 19 | 194 | 4.8 | 14.5 | 0.00 | 0.00 | 0.00 | 39 | 1005.8 |
| 20260504232643 | 19 | 134 | 4.8 | 12.9 | 0.00 | 0.00 | 0.00 | 40 | 1005.9 |
| 20260504232140 | 20 | 138 | 4.8 | 17.7 | 0.00 | 0.00 | 0.00 | 38 | 1005.7 |
| 20260504231636 | 20 | 101 | 4.8 | 8.0 | 0.00 | 0.00 | 0.00 | 38 | 1005.9 |
| 20260504231133 | 20 | 142 | 3.2 | 14.5 | 0.00 | 0.00 | 0.00 | 38 | 1005.8 |
| 20260504230629 | 20 | 212 | 4.8 | 17.7 | 0.00 | 0.00 | 0.00 | 38 | 1005.7 |
| 20260504230128 | 20 | 141 | 8.0 | 11.3 | 0.00 | 0.00 | 0.00 | 36 | 1005.6 |
| 20260504225626 | 20 | 131 | 3.2 | 9.7 | 0.00 | 0.00 | 0.00 | 36 | 1005.7 |
| 20260504225121 | 20 | 315 | 3.2 | 11.3 | 0.00 | 0.00 | 0.00 | 35 | 1005.9 |
| 20260504224618 | 20 | 182 | 4.8 | 14.5 | 0.00 | 0.00 | 0.00 | 36 | 1005.6 |
| 20260504224115 | 20 | 234 | 4.8 | 16.1 | 0.00 | 0.00 | 0.00 | 36 | 1005.8 |
| 20260504223612 | 21 | 257 | 3.2 | 17.7 | 0.00 | 0.00 | 0.00 | 37 | 1005.8 |
| 20260504223108 | 21 | 152 | 1.6 | 11.3 | 0.00 | 0.00 | 0.00 | 38 | 1005.7 |
| 20260504222605 | 21 | 165 | 4.8 | 6.4 | 0.00 | 0.00 | 0.00 | 34 | 1005.9 |
| 20260504222102 | 22 | 180 | 6.4 | 9.7 | 0.00 | 0.00 | 0.00 | 32 | 1005.8 |
| 20260504221559 | 21 | 202 | 4.8 | 11.3 | 0.00 | 0.00 | 0.00 | 31 | 1005.5 |
| 20260504221056 | 22 | 221 | 4.8 | 19.3 | 0.00 | 0.00 | 0.00 | 29 | 1005.8 |
| 20260504220553 | 21 | 249 | 4.8 | 20.9 | 0.00 | 0.00 | 0.00 | 29 | 1005.7 |
| 20260504220050 | 21 | 234 | 11.3 | 16.1 | 0.00 | 0.00 | 0.00 | 30 | 1005.6 |
| 20260504215546 | 22 | 132 | 11.3 | 20.9 | 0.00 | 0.00 | 0.00 | 31 | 1005.5 |
| 20260504215044 | 22 | 219 | 9.7 | 17.7 | 0.00 | 0.00 | 0.00 | 29 | 1005.7 |
| 20260504214539 | 22 | 206 | 17.7 | 17.7 | 0.00 | 0.00 | 0.00 | 30 | 1005.8 |
| 20260504214036 | 22 | 189 | 12.9 | 19.3 | 0.00 | 0.00 | 0.00 | 31 | 1005.9 |
| 20260504213532 | 21 | 233 | 11.3 | 24.1 | 0.00 | 0.00 | 0.00 | 31 | 1005.8 |
| 20260504213030 | 21 | 211 | 14.5 | 14.5 | 0.00 | 0.00 | 0.00 | 32 | 1005.7 |
| 20260504212525 | 21 | 249 | 9.7 | 16.1 | 0.00 | 0.00 | 0.00 | 31 | 1005.6 |
| 20260504212023 | 21 | 157 | 3.2 | 20.9 | 0.00 | 0.00 | 0.00 | 33 | 1005.9 |
| 20260504211520 | 21 | 125 | 6.4 | 19.3 | 0.00 | 0.00 | 0.00 | 34 | 1005.9 |
| 20260504211017 | 21 | 237 | 9.7 | 22.5 | 0.00 | 0.00 | 0.00 | 31 | 1006.3 |
| 20260504210514 | 21 | 251 | 12.9 | 14.5 | 0.00 | 0.00 | 0.00 | 32 | 1006.0 |
| 20260504210011 | 21 | 196 | 8.0 | 25.7 | 0.00 | 0.00 | 0.00 | 32 | 1005.9 |
| 20260504205509 | 21 | 163 | 9.7 | 19.3 | 0.00 | 0.00 | 0.00 | 32 | 1006.1 |
| 20260504205006 | 22 | 273 | 6.4 | 12.9 | 0.00 | 0.00 | 0.00 | 32 | 1006.0 |
| 20260504204504 | 20 | 216 | 9.7 | 19.3 | 0.00 | 0.00 | 0.00 | 33 | 1006.2 |
| 20260504204003 | 21 | 94 | 4.8 | 14.5 | 0.00 | 0.00 | 0.00 | 32 | 1006.1 |
| 20260504203501 | 21 | 161 | 8.0 | 20.9 | 0.00 | 0.00 | 0.00 | 33 | 1006.4 |
| 20260504202956 | 21 | 247 | 4.8 | 16.1 | 0.00 | 0.00 | 0.00 | 33 | 1006.2 |
| 20260504202453 | 20 | 247 | 9.7 | 24.1 | 0.00 | 0.00 | 0.00 | 35 | 1006.6 |
| 20260504201950 | 20 | 259 | 4.8 | 19.3 | 0.00 | 0.00 | 0.00 | 37 | 1006.6 |
| 20260504201447 | 20 | 160 | 11.3 | 30.6 | 0.00 | 0.00 | 0.00 | 35 | 1006.5 |
| 20260504200945 | 21 | 191 | 3.2 | 19.3 | 0.00 | 0.00 | 0.00 | 35 | 1006.5 |